Wind_Speed
10 9 8 8 7 6 6 8 7 5 5 5 5 5 5 4 4 4 4 4 4 4 4 4 5 5 6 7 7 7 7 7 7 7 7 7 7 8 8 9 9 9 10 10 10 11 11 11 11
10 9 9 9 7 6 7 9 8 7 6 6 6 6 6 5 5 5 5 5 5 5 5 5 6 7 7 8 8 8 8 8 8 8 8 8 9 9 9 10 10 11 11 12 11 12 12 12 12
11 11 10 9 9 8 9 9 8 7 7 8 7 7 7 7 6 6 6 6 5 6 6 6 7 7 8 10 10 10 10 10 9 9 9 10 10 11 11 11 12 12 12 13 13 13 13 14 13
12 11 11 10 10 9 10 10 9 8 8 9 9 8 8 8 7 6 6 6 6 7 7 7 8 8 9 10 11 10 11 11 11 11 11 11 12 12 12 12 13 13 13 14 14 15 15 15 15
12 12 11 11 11 10 10 10 10 9 9 9 9 9 7 7 7 7 7 7 7 8 8 8 8 9 9 10 10 11 11 12 12 12 13 13 13 13 13 13 14 14 15 15 15 16 17 17 16
12 12 12 12 12 11 10 10 10 10 9 10 10 9 9 8 8 8 8 8 8 9 10 10 10 10 10 11 12 12 12 13 13 14 14 15 15 14 15 15 16 16 16 17 17 17 18 17 17
12 12 12 12 13 12 12 12 11 10 10 11 11 10 10 10 10 10 9 9 10 10 10 11 11 11 12 13 13 13 13 14 15 15 15 16 16 16 16 17 17 18 18 18 18 18 19 19 19
12 12 12 12 13 13 13 12 12 11 11 12 12 12 12 12 11 12 12 11 11 11 11 12 12 12 13 13 13 14 15 15 16 16 16 17 17 18 18 18 18 19 19 19 19 20 20 20 20
12 12 12 13 13 13 13 13 12 12 13 13 13 13 13 13 13 13 13 13 13 12 13 13 13 13 14 14 15 16 17 17 16 17 17 17 18 19 19 20 20 20 20 21 21 21 22 22 22
12 12 14 14 14 14 14 13 13 13 13 13 13 14 14 13 13 14 14 14 14 14 14 14 14 13 14 15 16 17 17 18 17 17 18 19 19 20 21 21 22 22 22 22 23 23 23 23 23
12 13 13 14 14 14 14 14 14 14 14 15 15 14 14 14 15 15 16 16 15 15 15 16 15 14 15 16 17 17 18 18 18 18 19 20 21 21 22 23 23 23 23 24 24 24 23 23 23
12 12 13 14 14 14 14 14 14 15 16 16 16 15 16 16 16 16 17 17 16 16 15 16 16 15 16 16 17 18 18 18 18 19 20 21 22 23 23 24 24 24 24 24 24 24 24 24 25
11 11 12 14 15 14 14 15 15 16 16 16 17 17 17 17 17 16 16 16 16 16 16 17 17 17 17 17 18 18 18 19 19 20 21 22 23 24 24 24 24 24 25 25 25 24 25 25 26
10 11 12 13 14 14 14 15 15 15 16 16 17 17 17 17 17 17 16 16 16 16 17 17 17 18 17 18 18 19 19 20 20 21 22 24 24 24 24 24 25 25 25 24 25 25 26 26 26
10 10 12 14 14 14 15 15 15 16 16 16 16 16 16 16 17 17 17 17 17 17 17 18 17 17 18 18 18 19 20 21 21 22 23 24 24 25 26 25 25 25 24 25 25 25 26 27 27
9 10 11 14 14 13 13 14 16 16 16 17 17 17 17 17 17 18 18 18 18 18 18 18 17 17 18 18 19 20 20 21 22 23 23 24 25 25 25 25 25 25 25 24 25 25 26 26 27
9 10 11 14 14 14 14 15 17 17 18 18 18 18 18 18 18 19 19 19 19 19 19 19 19 19 19 19 20 21 21 22 22 23 24 24 24 24 24 25 24 24 24 24 24 25 26 26 27
10 11 12 13 15 16 16 16 18 18 18 18 18 18 18 18 19 19 19 20 19 19 20 20 20 21 20 20 21 22 22 23 22 23 23 24 24 24 25 24 24 24 24 24 25 25 25 25 25
11 11 13 14 16 17 17 18 18 19 19 19 19 18 18 19 19 19 20 20 20 20 20 20 20 21 20 20 21 22 23 23 23 23 24 24 24 25 25 24 24 24 24 25 25 25 24 24 25
12 13 14 15 16 17 18 18 18 19 19 19 19 19 20 20 20 20 20 20 20 19 19 20 21 21 21 21 22 23 23 24 24 24 25 25 24 24 24 24 24 23 23 23 23 23 23 23 23
13 14 15 16 16 16 17 17 17 18 19 19 19 20 20 20 19 20 20 21 20 20 20 21 21 21 22 23 24 23 23 24 24 24 24 24 24 24 24 23 22 23 23 23 23 23 24 24 24
13 15 16 17 17 16 17 16 17 18 19 20 20 20 20 19 20 20 21 21 20 21 21 21 21 22 23 23 23 23 23 23 24 24 24 24 24 23 23 23 23 23 23 23 24 24 24 25 25
15 17 17 17 18 18 18 18 17 18 19 20 20 20 19 19 20 21 21 20 20 21 21 21 21 23 24 24 23 23 24 24 24 25 25 24 24 24 24 24 23 23 23 23 23 24 24 24 23
18 18 18 18 18 18 19 19 18 19 20 19 19 19 19 20 20 20 20 20 20 21 21 22 22 23 24 25 24 25 24 24 24 24 24 23 24 24 24 24 24 24 24 24 24 23 23 23 23
18 17 17 17 17 18 19 19 19 20 19 18 18 19 19 19 20 20 20 20 20 20 21 21 22 22 23 24 24 25 25 24 24 24 22 22 23 23 24 24 25 25 25 25 24 23 23 23 23
19 18 18 18 17 18 19 18 18 19 18 18 18 18 19 19 20 20 19 19 20 20 21 21 21 22 23 24 25 24 24 23 23 23 22 21 22 23 24 25 25 25 25 24 23 24 23 24 24
21 20 19 20 20 20 19 18 19 20 19 19 18 18 18 19 20 20 19 19 20 20 20 21 22 22 23 24 24 24 23 22 22 22 22 21 21 22 24 24 24 24 23 22 22 22 23 24 24
21 21 21 20 20 20 19 18 18 20 19 19 20 19 19 18 18 19 19 19 20 20 20 21 22 22 23 23 23 23 23 22 22 22 22 21 21 22 22 24 23 22 22 21 22 22 23 24 24
21 20 21 21 21 20 20 18 19 19 18 18 19 19 19 19 18 18 18 19 19 20 21 21 21 21 21 21 22 22 21 21 21 21 21 21 21 21 22 22 21 21 22 22 21 22 22 23 23
22 22 22 22 22 22 23 21 20 18 18 18 18 18 18 18 19 18 18 18 19 19 20 20 20 20 20 20 20 20 19 19 19 20 19 20 20 21 22 21 21 21 21 21 21 21 23 23 22
Wind_Direction
220 216 217 219 222 225 228 237 239 241 241 243 255 249 250 243 246 252 254 258 264 277 288 290 291 295 293 283 279 279 283 285 289 294 299 302 303 303 305 307 307 305 301 298 295 291 289 287 286
221 221 222 223 221 232 244 246 245 244 251 253 255 254 256 249 254 260 262 267 271 276 285 289 291 290 283 278 278 283 286 287 288 291 296 298 299 298 298 302 304 303 300 296 294 291 289 288 287
223 223 224 226 224 224 240 246 247 249 253 259 259 255 256 258 261 266 270 274 277 279 282 285 289 285 280 279 280 283 285 288 288 288 290 292 294 294 294 297 299 300 300 299 297 292 287 286 284
225 226 229 230 231 234 240 249 255 259 258 259 258 261 260 264 264 269 277 281 282 283 283 283 286 285 283 283 284 285 287 287 289 288 288 289 292 293 294 295 296 296 297 298 298 295 290 288 285
225 226 231 235 236 240 245 252 256 256 257 258 265 269 273 271 272 276 285 290 291 291 290 286 286 288 288 286 287 287 288 288 287 288 287 288 291 294 294 294 295 293 292 294 294 293 293 289 285
224 226 229 236 239 244 250 254 258 254 259 261 265 270 275 275 280 282 286 291 296 299 297 292 290 287 286 285 288 288 290 289 286 285 287 288 289 291 293 294 294 292 291 290 290 291 291 287 286
225 226 228 233 237 244 250 254 259 259 261 265 268 272 276 278 284 283 283 291 295 297 296 291 291 284 282 288 287 288 290 290 287 285 285 285 288 291 293 293 293 292 291 290 290 289 289 286 285
224 225 230 234 236 244 251 257 261 263 264 268 270 273 277 282 285 286 284 286 288 289 289 289 288 286 285 286 288 290 290 290 288 286 286 286 289 290 291 293 292 292 291 291 290 288 287 284 284
221 222 229 233 236 244 253 259 262 265 268 272 274 274 279 282 286 289 286 284 285 285 285 284 285 285 284 284 287 289 290 291 288 286 286 287 288 289 290 292 292 292 291 290 289 288 286 284 284
220 222 231 236 240 246 254 260 264 266 270 272 275 278 282 284 286 289 286 287 288 287 284 284 283 284 284 283 286 287 288 290 288 288 288 288 288 290 291 292 293 292 290 289 288 287 285 282 283
223 224 234 242 246 251 255 259 263 265 268 272 274 276 279 284 286 287 287 288 287 284 284 283 280 283 286 286 286 287 289 289 289 289 289 289 290 291 291 290 291 290 289 289 288 287 285 282 283
227 232 240 246 252 255 257 262 265 265 268 271 275 277 280 283 283 283 285 284 283 282 281 280 280 283 286 286 286 287 288 288 288 289 290 290 291 290 290 289 288 288 287 287 287 286 285 283 282
234 242 248 251 254 258 260 264 267 269 271 274 275 280 285 282 282 284 282 280 281 281 282 283 280 282 284 284 286 287 287 285 286 288 290 292 291 290 289 290 288 287 286 285 285 285 285 283 283
242 249 256 259 261 262 265 268 271 272 272 275 279 283 285 284 281 281 279 278 281 280 280 282 280 281 283 283 284 285 287 287 287 289 290 291 290 290 289 288 288 288 287 287 286 285 285 284 283
253 257 263 266 266 266 267 270 272 274 274 276 280 284 286 285 281 277 275 276 276 279 280 281 280 280 279 281 283 285 286 287 287 289 290 290 290 291 289 288 288 289 288 288 288 287 286 285 285
261 264 269 271 269 269 269 271 272 273 274 276 279 283 286 285 281 276 276 275 276 278 279 279 281 282 282 282 283 284 287 288 287 288 289 290 291 292 290 290 290 290 289 289 288 289 288 287 286
274 271 269 272 271 271 271 270 273 273 276 279 280 282 282 283 282 277 275 275 275 275 275 277 279 283 284 285 286 286 288 289 289 287 288 290 290 289 290 291 292 291 289 289 290 289 288 288 288
272 274 274 275 275 273 271 272 276 276 278 280 282 282 279 280 280 278 275 272 273 273 273 275 278 282 286 288 290 288 288 289 290 289 289 291 292 292 292 293 292 291 289 290 290 291 289 288 289
273 277 279 279 278 277 275 275 276 277 276 277 278 280 279 279 278 276 275 273 273 272 274 276 278 283 287 291 291 290 288 288 291 291 290 292 294 294 293 293 292 291 291 291 291 290 290 291 289
282 285 284 282 281 280 278 278 276 275 276 277 279 280 278 279 278 275 276 276 276 275 274 276 280 283 288 291 292 292 290 290 292 292 291 292 294 295 295 295 293 292 294 295 293 291 292 293 291
290 286 283 282 284 285 283 284 282 278 279 280 282 283 280 279 278 277 277 279 277 274 275 278 280 284 287 289 290 292 293 291 291 291 291 291 292 292 295 297 297 296 296 294 293 293 292 292 291
293 290 288 287 287 287 285 285 283 279 281 282 284 283 282 279 280 280 280 279 275 275 276 279 282 284 286 288 290 293 294 292 291 291 291 289 291 294 296 296 296 296 295 293 292 292 292 291 291
288 289 289 288 286 285 284 283 285 283 282 282 282 281 280 279 279 280 280 277 274 275 278 281 282 285 287 291 293 293 295 294 292 290 288 289 292 294 296 295 296 296 295 294 294 294 293 292 292
289 290 291 291 290 286 283 282 284 280 280 280 279 279 279 277 279 281 279 276 275 277 279 281 284 287 289 292 294 295 294 293 292 291 289 290 292 292 293 295 296 296 295 295 294 295 294 293 293
291 291 293 294 290 287 285 282 281 279 282 281 281 282 281 278 278 281 281 278 276 278 281 283 286 289 291 292 294 295 295 292 292 293 292 292 292 292 293 294 295 296 296 296 295 295 295 294 294
289 288 286 286 286 286 285 285 284 281 282 282 281 282 280 279 279 280 280 279 279 280 283 285 288 290 292 293 294 295 296 297 295 294 293 292 292 294 295 296 296 296 297 297 296 295 295 295 295
286 285 281 281 285 285 285 287 288 288 285 281 282 282 279 279 280 278 277 280 281 281 283 284 287 290 293 294 294 294 296 297 299 298 297 295 295 296 297 300 302 299 300 298 298 298 297 297 297
284 280 280 280 282 283 285 287 284 288 287 285 283 281 281 280 279 277 277 278 279 280 282 285 288 290 292 295 296 298 298 298 300 300 299 300 300 301 302 302 304 305 302 300 300 300 299 299 298
283 281 280 278 275 279 281 281 281 286 287 286 283 280 281 281 279 280 278 278 278 280 282 286 287 290 293 295 296 298 300 301 300 301 302 302 304 305 306 306 306 305 304 301 301 302 303 302 301
282 279 278 277 277 276 278 281 282 286 289 288 286 284 282 283 281 280 279 278 279 281 282 286 288 291 295 297 296 298 300 302 302 301 302 302 304 307 309 307 307 306 306 303 302 303 304 303 302
Height
5891 5893 5894 5896 5898 5900 5900 5900 5899 5899 5899 5898 5898 5898 5898 5898 5899 5901 5898 5896 5895 5895 5894 5893 5893 5893 5892 5892 5891 5891 5890 5889 5888 5887 5887 5886 5885 5884 5883 5882 5881 5881 5880 5879 5879 5878 5877 5877 5876
5889 5891 5893 5895 5897 5899 5899 5898 5898 5898 5897 5897 5897 5896 5896 5896 5896 5896 5895 5894 5894 5893 5893 5892 5892 5891 5890 5890 5889 5889 5888 5887 5887 5886 5885 5884 5883 5882 5881 5880 5879 5878 5878 5877 5876 5876 5875 5874 5874
5887 5889 5892 5893 5895 5897 5897 5896 5896 5896 5896 5895 5895 5895 5895 5895 5894 5894 5893 5893 5892 5892 5891 5891 5890 5889 5889 5888 5887 5887 5886 5885 5885 5884 5883 5882 5881 5880 5879 5878 5877 5876 5875 5874 5874 5873 5872 5872 5871
5885 5887 5890 5892 5893 5894 5894 5894 5894 5894 5894 5893 5893 5893 5893 5893 5893 5892 5892 5891 5891 5890 5889 5889 5888 5887 5886 5886 5885 5884 5884 5883 5882 5881 5880 5879 5878 5877 5876 5875 5874 5873 5872 5872 5871 5870 5869 5868 5868
5882 5885 5887 5889 5890 5891 5891 5891 5891 5892 5892 5892 5892 5892 5891 5891 5891 5890 5890 5889 5889 5888 5887 5886 5886 5885 5884 5883 5882 5881 5881 5880 5879 5878 5877 5876 5875 5874 5873 5872 5871 5870 5869 5868 5867 5866 5865 5864 5864
5881 5883 5886 5887 5888 5889 5889 5889 5890 5890 5890 5890 5890 5890 5890 5889 5889 5888 5888 5887 5887 5886 5885 5884 5883 5883 5882 5881 5880 5879 5878 5877 5876 5875 5874 5873 5872 5871 5870 5868 5867 5866 5865 5865 5864 5862 5862 5861 5860
5879 5881 5883 5885 5885 5886 5887 5887 5887 5888 5888 5888 5888 5888 5888 5888 5887 5886 5886 5885 5884 5884 5883 5882 5881 5880 5879 5878 5877 5876 5875 5874 5872 5871 5871 5870 5869 5867 5866 5865 5864 5863 5862 5861 5860 5858 5858 5857 5856
5876 5879 5880 5882 5883 5884 5884 5884 5885 5886 5886 5886 5886 5886 5886 5886 5884 5884 5883 5883 5882 5881 5880 5879 5878 5877 5876 5875 5874 5873 5872 5870 5869 5868 5867 5866 5865 5864 5862 5861 5860 5859 5857 5856 5855 5854 5853 5852 5851
5873 5877 5878 5879 5880 5881 5881 5882 5883 5883 5883 5883 5883 5883 5883 5882 5882 5881 5880 5879 5879 5879 5878 5877 5875 5874 5873 5872 5871 5869 5868 5867 5865 5864 5863 5862 5861 5860 5858 5857 5855 5854 5853 5852 5851 5849 5848 5847 5846
5872 5874 5876 5876 5878 5878 5879 5880 5880 5881 5881 5881 5880 5880 5880 5879 5879 5878 5877 5876 5876 5875 5874 5874 5872 5871 5870 5869 5867 5866 5865 5863 5862 5861 5860 5858 5857 5856 5854 5852 5851 5849 5848 5847 5846 5844 5843 5842 5841
5870 5872 5872 5873 5875 5876 5876 5877 5878 5878 5878 5878 5878 5877 5876 5876 5875 5874 5874 5873 5872 5871 5871 5870 5869 5868 5867 5866 5864 5862 5861 5859 5858 5857 5856 5854 5853 5851 5850 5848 5846 5845 5843 5842 5840 5839 5838 5837 5835
5868 5869 5870 5871 5872 5873 5874 5874 5875 5875 5875 5875 5874 5874 5873 5873 5872 5871 5870 5870 5869 5868 5867 5867 5866 5865 5863 5862 5861 5859 5857 5856 5855 5853 5852 5850 5848 5847 5845 5843 5841 5840 5838 5836 5835 5833 5832 5831 5830
5865 5867 5867 5868 5869 5870 5870 5871 5871 5871 5871 5871 5871 5871 5870 5869 5869 5868 5867 5866 5866 5864 5864 5863 5862 5861 5860 5858 5857 5855 5853 5852 5851 5849 5847 5845 5843 5842 5840 5838 5836 5834 5832 5830 5829 5827 5826 5825 5824
5863 5864 5865 5865 5866 5867 5867 5868 5868 5868 5868 5867 5867 5867 5866 5866 5865 5864 5864 5863 5862 5861 5860 5859 5858 5857 5856 5855 5853 5851 5850 5848 5846 5845 5843 5841 5839 5837 5834 5832 5830 5828 5826 5825 5823 5821 5820 5818 5817
5861 5863 5863 5863 5863 5864 5865 5865 5865 5865 5864 5864 5863 5863 5863 5862 5861 5861 5860 5859 5859 5858 5857 5856 5854 5853 5852 5850 5849 5847 5846 5844 5842 5840 5838 5836 5834 5832 5829 5827 5825 5823 5821 5819 5817 5815 5814 5812 5810
5860 5861 5862 5861 5861 5861 5864 5864 5862 5861 5861 5860 5860 5860 5859 5858 5857 5856 5855 5855 5855 5854 5853 5851 5850 5849 5848 5846 5845 5843 5841 5839 5837 5835 5833 5831 5829 5826 5824 5821 5819 5817 5815 5813 5812 5810 5808 5806 5804
5859 5860 5860 5859 5858 5859 5860 5860 5859 5858 5858 5857 5856 5856 5855 5854 5853 5852 5851 5851 5850 5850 5849 5847 5846 5845 5843 5842 5840 5838 5836 5834 5832 5830 5828 5826 5823 5821 5818 5816 5814 5811 5809 5807 5806 5804 5801 5799 5797
5858 5858 5858 5857 5856 5856 5856 5856 5855 5854 5854 5853 5852 5851 5850 5850 5849 5847 5847 5846 5846 5845 5844 5843 5842 5840 5838 5837 5835 5834 5832 5830 5828 5825 5823 5821 5818 5816 5813 5810 5808 5806 5804 5802 5800 5798 5795 5793 5791
5855 5855 5855 5854 5852 5852 5852 5852 5851 5850 5850 5849 5848 5847 5846 5845 5844 5843 5842 5842 5841 5841 5840 5839 5837 5835 5833 5832 5831 5829 5827 5825 5823 5820 5818 5816 5813 5811 5808 5805 5802 5800 5798 5796 5794 5792 5790 5788 5786
5852 5852 5852 5851 5849 5849 5848 5848 5847 5846 5845 5845 5844 5843 5842 5841 5840 5839 5838 5837 5837 5836 5835 5834 5833 5831 5829 5828 5826 5824 5822 5819 5817 5815 5812 5810 5808 5805 5803 5800 5797 5795 5793 5791 5789 5786 5784 5782 5780
5850 5850 5849 5848 5846 5845 5844 5844 5844 5842 5841 5840 5839 5838 5837 5836 5835 5834 5834 5833 5832 5831 5830 5830 5828 5827 5825 5823 5821 5818 5816 5813 5812 5809 5807 5805 5802 5800 5798 5795 5792 5790 5788 5785 5783 5781 5779 5777 5774
5848 5846 5845 5844 5843 5843 5842 5841 5840 5838 5837 5835 5834 5833 5832 5831 5830 5830 5828 5828 5827 5826 5825 5825 5824 5823 5820 5818 5815 5812 5811 5808 5806 5804 5802 5800 5797 5794 5792 5790 5787 5784 5782 5780 5778 5775 5773 5771 5769
5844 5842 5841 5840 5839 5839 5838 5837 5837 5834 5832 5831 5829 5828 5827 5826 5825 5824 5823 5822 5822 5821 5821 5820 5819 5817 5815 5813 5811 5808 5806 5804 5801 5799 5797 5795 5792 5790 5787 5785 5782 5779 5777 5774 5772 5769 5767 5765 5763
5839 5839 5837 5836 5836 5835 5834 5833 5833 5830 5827 5826 5824 5823 5822 5821 5820 5819 5818 5818 5817 5817 5816 5815 5813 5812 5810 5808 5806 5804 5801 5799 5797 5794 5791 5789 5787 5784 5782 5779 5776 5774 5771 5769 5766 5763 5761 5759 5756
5836 5836 5835 5834 5834 5832 5829 5827 5827 5824 5822 5821 5819 5818 5817 5816 5815 5814 5814 5813 5812 5812 5811 5810 5808 5807 5805 5803 5801 5799 5796 5793 5790 5788 5785 5783 5781 5779 5776 5773 5771 5768 5765 5762 5760 5757 5755 5753 5751
5831 5831 5831 5830 5829 5828 5825 5823 5822 5819 5817 5816 5814 5813 5812 5811 5810 5810 5809 5808 5808 5807 5806 5805 5804 5802 5800 5798 5796 5793 5790 5787 5785 5782 5780 5778 5775 5773 5770 5767 5764 5762 5759 5757 5754 5752 5749 5747 5745
5826 5825 5825 5823 5822 5821 5820 5819 5817 5813 5812 5811 5810 5808 5807 5806 5806 5805 5804 5804 5803 5803 5801 5800 5799 5797 5795 5793 5790 5787 5785 5783 5780 5778 5775 5773 5770 5768 5765 5762 5759 5756 5753 5751 5748 5746 5744 5741 5738
5821 5819 5819 5818 5816 5815 5815 5814 5813 5809 5807 5806 5804 5803 5803 5802 5801 5800 5799 5799 5798 5797 5796 5795 5794 5792 5790 5788 5785 5783 5780 5778 5776 5773 5771 5768 5765 5763 5760 5757 5754 5751 5749 5746 5743 5741 5738 5735 5732
5815 5814 5812 5812 5811 5810 5809 5811 5807 5804 5802 5801 5800 5799 5798 5797 5796 5795 5795 5794 5793 5792 5791 5790 5788 5787 5785 5782 5780 5778 5776 5773 5771 5768 5766 5763 5760 5758 5755 5752 5749 5746 5744 5741 5738 5736 5733 5730 5726
5808 5807 5806 5806 5804 5803 5803 5805 5800 5799 5797 5796 5795 5794 5793 5792 5791 5790 5789 5789 5788 5787 5786 5785 5784 5782 5780 5778 5775 5773 5771 5769 5766 5764 5761 5759 5756 5753 5750 5747 5744 5742 5739 5736 5733 5731 5728 5724 5721